Participated 5 times
Between 1983 and 1990
Paul Haghedooren, Belgium
Tour de France 2026 starts from Barcelona, Spain in

Stats and Facts from
Tour de France.

2026   2025   2024   2023  2022  2021  2020  2019   2018  2017   2016   2015  2014  2013   2012   2011  2010   2009   2008   2007   2006   2005   2004   2003   2002   2001   2000   1999   1998   1997  1996   1995   1994   1993   1992  1991   1990   1989   1988   1987   1986   1985   1984   1983  1982  1981   1980   1979  1978  1977   1976  1975  1974  1973   1972   1971   1970  1969   1968   1967   1966   1965  1964  1963   1962   1961   1960   1959   1958   1957  1956   1955   1954   1953   1952  1951  1950  1949   1948  1947  1939   1938   1937   1936   1935   1934   1933  1932   1931   1930  1929   1928   1927   1926  1925  1924  1923   1922   1921   1920   1919  1914   1913   1912   1911   1910  1909   1908   1907   1906  1905  1904   1903 

Tourstats
Sitemap

After stage 21 - 2025:
 16451 starters.
  5463 different riders.
  689 teams.
  2398 stages.
  470 restdays.
  466506.50 km.
  5925 abandoned riders.

Click map for 2006 route.
Facts from Tour de France 2006
  |   Stages.  |   Stage winners.  |   Days in jerseys.  |   Teams.  |   All riders.  |   All riders by age.  |   All riders from.  |  

  |   Rookies.  |   Withdrawls.  |   Average speed.  |   GC.  |   Polka  |   Green  |   White  |   Summits. (In tour)  |   Miscellaneous.  |  

Stage 19 on July 22nd. 2006
Pick a stage:  Pro  1  2  3  4  5  6  7  8  9  10  11  12  13  14  15  16  17  18  19  20  

After stage 19:    Óscar Pereiro  
  Le CreusotMontceau-les-Mines | Dist: 57.00km. | Winner: Serhiy Honchar

Podium

Average speed for all riders in stage:  45,897 km./hr.

1
 Serhiy Honchar  T-Mobile01h 07' 45"=50,480  km/h

2
 Andréas  Klöden  T-Mobile01h 08' 26"+  00:00:41 =49,976  km/h

3
 Floyd Landis  Phonak Hearing Systems01h 08' 56"+  00:01:11 =49,613  km/h

4  Óscar Pereiro  Illes Balears-Caisse d Epargne01h 09' 14"+  00:01:29 =49,398  km/h

5  Sebastian Lang  Gerolsteiner01h 09' 52"+  00:02:07 =48,950  km/h

6  David Zabriskie  CSC01h 10' 09"+  00:02:24 =48,753  km/h

7  Viatcheslav Ekimov  Discovery Channel01h 10' 15"+  00:02:30 =48,683  km/h

8  Cadel Evans  Davitamon-Lotto01h 10' 15"+  00:02:30 =48,683  km/h

9  Bert Grabsch  Phonak Hearing Systems01h 10' 17"+  00:02:32 =48,660  km/h

10  Damiano Cunego  Lampre-Fondital01h 10' 18"+  00:02:33 =48,649  km/h

11  David Millar  Saunier Duval-Prodir01h 10' 35"+  00:02:50 =48,453  km/h

12  Joost Posthuma  Rabobank01h 10' 37"+  00:02:52 =48,430  km/h

13  Markus Fothen  Gerolsteiner01h 10' 49"+  00:03:04 =48,294  km/h

14  Jens Voigt  CSC01h 10' 50"+  00:03:05 =48,282  km/h

15  Gustav-Erik Larsson  Francaise Des Jeux01h 10' 55"+  00:03:10 =48,226  km/h

16  Sylvain Chavanel  Cofidis Credit Par Telephone01h 11' 06"+  00:03:21 =48,101  km/h

17  Denis Menchov  Rabobank01h 11' 07"+  00:03:22 =48,090  km/h

18  Nicolas Portal  Illes Balears-Caisse d Epargne01h 11' 09"+  00:03:24 =48,067  km/h

19  Michael Rogers  T-Mobile01h 11' 09"+  00:03:24 =48,067  km/h

20  Carlos Sastre  CSC01h 11' 16"+  00:03:31 =47,989  km/h

21  Stuart O'Grady  CSC01h 11' 20"+  00:03:35 =47,944  km/h

22  Christian Vandevelde  CSC01h 11' 26"+  00:03:41 =47,877  km/h

23  Koos Moerenhout  Phonak Hearing Systems01h 11' 27"+  00:03:42 =47,866  km/h

24  Vladimir Karpets  Illes Balears-Caisse d Epargne01h 11' 31"+  00:03:46 =47,821  km/h

25  Yaroslav Popovych  Discovery Channel01h 11' 32"+  00:03:47 =47,810  km/h

26  Marzio Bruseghin  Lampre-Fondital01h 11' 33"+  00:03:48 =47,799  km/h

27  Pavel Padrnos  Discovery Channel01h 11' 39"+  00:03:54 =47,732  km/h

28  Haimar  Zubeldía  Euskaltel-Euskadi01h 12' 04"+  00:04:19 =47,456  km/h

29  George Hincapie  Discovery Channel01h 12' 04"+  00:04:19 =47,456  km/h

30  Christophe Moreau  AG2R-Decathlon01h 12' 07"+  00:04:22 =47,423  km/h

31  Fränk Schleck  CSC01h 12' 13"+  00:04:28 =47,357  km/h

32  José Azevedo  Discovery Channel01h 12' 22"+  00:04:37 =47,259  km/h

33  Cyril Dessel  AG2R-Decathlon01h 12' 32"+  00:04:47 =47,151  km/h

34  Levi Leipheimer  Gerolsteiner01h 12' 36"+  00:04:51 =47,107  km/h

35  Thomas  Voeckler  Bouygues Telecom01h 12' 52"+  00:05:07 =46,935  km/h

36  Pierrick  Fédrigo  Bouygues Telecom01h 12' 54"+  00:05:09 =46,914  km/h

37  Johan Vansummeren  Davitamon-Lotto01h 12' 54"+  00:05:09 =46,914  km/h

38  Eddy Mazzoleni  T-Mobile01h 13' 03"+  00:05:18 =46,817  km/h

39  Benoit Vaugrenard  Francaise Des Jeux01h 13' 06"+  00:05:21 =46,785  km/h

40  Nicolas Jalabert  Phonak Hearing Systems01h 13' 07"+  00:05:22 =46,775  km/h

41  Ralf Grabsch  Milram01h 13' 09"+  00:05:24 =46,753  km/h

42  Didier Rous  Bouygues Telecom01h 13' 17"+  00:05:32 =46,668  km/h

43  Georg Totschnig  Gerolsteiner01h 13' 18"+  00:05:33 =46,658  km/h

44  Philippe Gilbert  Francaise Des Jeux01h 13' 33"+  00:05:48 =46,499  km/h

45  Pietro Caucchioli  Credit Agricole01h 13' 41"+  00:05:56 =46,415  km/h

46  Matej Mugerli  Liquigas01h 13' 43"+  00:05:58 =46,394  km/h

47  Thomas Löfkvist  Francaise Des Jeux01h 13' 49"+  00:06:04 =46,331  km/h

48  Tadej Valjavec  Lampre-Fondital01h 13' 50"+  00:06:05 =46,321  km/h

49  Matthias Kessler  T-Mobile01h 13' 52"+  00:06:07 =46,300  km/h

50  Michael Albasini  Liquigas01h 13' 56"+  00:06:11 =46,258  km/h

51  Alessandro Ballan  Lampre-Fondital01h 14' 05"+  00:06:20 =46,164  km/h

52  Patrik Sinkewitz  T-Mobile01h 14' 06"+  00:06:21 =46,154  km/h

53  Giuseppe Guerini  T-Mobile01h 14' 07"+  00:06:22 =46,143  km/h

54  Michael Boogerd  Rabobank01h 14' 09"+  00:06:24 =46,123  km/h

55  Christian Knees  Milram01h 14' 09"+  00:06:24 =46,123  km/h

56  Bradley Wiggins  Cofidis Credit Par Telephone01h 14' 09"+  00:06:24 =46,123  km/h

57  Sandy Casar  Francaise Des Jeux01h 14' 11"+  00:06:26 =46,102  km/h

58  Axel Merckx  Phonak Hearing Systems01h 14' 16"+  00:06:31 =46,050  km/h

59  Xabier Zandio  Illes Balears-Caisse d Epargne01h 14' 19"+  00:06:34 =46,019  km/h

60  Christophe Mengin  Francaise Des Jeux01h 14' 20"+  00:06:35 =46,009  km/h

61  Filippo Pozzato  Quick Step-Innergetic01h 14' 26"+  00:06:41 =45,947  km/h

62  Eduardo Gonzalo  Agritubel01h 14' 27"+  00:06:42 =45,937  km/h

63  Anthony Geslin  Bouygues Telecom01h 14' 29"+  00:06:44 =45,916  km/h

64  Fabian Wegmann  Gerolsteiner01h 14' 32"+  00:06:47 =45,886  km/h

65  David De La Fuente  Saunier Duval-Prodir01h 14' 32"+  00:06:47 =45,886  km/h

66  Alexandre Moos  Phonak Hearing Systems01h 14' 34"+  00:06:49 =45,865  km/h

67  Björn Schröder  Milram01h 14' 40"+  00:06:55 =45,804  km/h

68  Stéphane Auge  Cofidis Credit Par Telephone01h 14' 42"+  00:06:57 =45,783  km/h

69  Samuel Dumoulin  AG2R-Decathlon01h 14' 42"+  00:06:57 =45,783  km/h

70  Aitor Hernández  Euskaltel-Euskadi01h 14' 51"+  00:07:06 =45,691  km/h

71  Thor Hushovd  Credit Agricole01h 14' 54"+  00:07:09 =45,661  km/h

72  Walter Bénéteau  Bouygues Telecom01h 14' 55"+  00:07:10 =45,651  km/h

73  Francisco Javier Vila  Lampre-Fondital01h 14' 58"+  00:07:13 =45,620  km/h

74  Carlos Da Cruz  Francaise Des Jeux01h 15' 00"+  00:07:15 =45,600  km/h

75  José-Luis Rubiera  Discovery Channel01h 15' 01"+  00:07:16 =45,590  km/h

76  Egoi Martínez  Discovery Channel01h 15' 02"+  00:07:17 =45,580  km/h

77  David Arroyo  Illes Balears-Caisse d Epargne01h 15' 04"+  00:07:19 =45,560  km/h

78  Juan Antonio Flecha  Rabobank01h 15' 05"+  00:07:20 =45,549  km/h

79  Alexandre Botcharov  Credit Agricole01h 15' 06"+  00:07:21 =45,539  km/h

80  Laurent Lefèvre  Bouygues Telecom01h 15' 09"+  00:07:24 =45,509  km/h

81  Bernhard Eisel  Francaise Des Jeux01h 15' 13"+  00:07:28 =45,469  km/h

82  Francisco Ventoso  Saunier Duval-Prodir01h 15' 20"+  00:07:35 =45,398  km/h

83  Christophe Laurent  Agritubel01h 15' 20"+  00:07:35 =45,398  km/h

84  Ronny Scholz  Gerolsteiner01h 15' 20"+  00:07:35 =45,398  km/h

85  Michael Rasmussen  Rabobank01h 15' 25"+  00:07:40 =45,348  km/h

86  Gorka Verdugo  Euskaltel-Euskadi01h 15' 26"+  00:07:41 =45,338  km/h

87  Christopher Horner  Davitamon-Lotto01h 15' 30"+  00:07:45 =45,298  km/h

88  Iker Camaño  Euskaltel-Euskadi01h 15' 30"+  00:07:45 =45,298  km/h

89  Bram Tankink  Quick Step-Innergetic01h 15' 32"+  00:07:47 =45,278  km/h

90  Robbie McEwen  Davitamon-Lotto01h 15' 32"+  00:07:47 =45,278  km/h

91  Jose Luis Arrieta  AG2R-Decathlon01h 15' 34"+  00:07:49 =45,258  km/h

92  Kjell Carlström  Liquigas01h 15' 34"+  00:07:49 =45,258  km/h

93  Cédric Vasseur  Quick Step-Innergetic01h 15' 40"+  00:07:55 =45,198  km/h

94  Mikel Astarloza  AG2R-Decathlon01h 15' 45"+  00:08:00 =45,149  km/h

95  Pieter Weening  Rabobank01h 15' 50"+  00:08:05 =45,099  km/h

96  Moisés Dueñas  Agritubel01h 15' 57"+  00:08:12 =45,030  km/h

97  Stefano Garzelli  Liquigas01h 15' 59"+  00:08:14 =45,010  km/h

98  Manuel Quinziato  Liquigas01h 16' 00"+  00:08:15 =45,000  km/h

99  Matthieu Sprick  Bouygues Telecom01h 16' 01"+  00:08:16 =44,990  km/h

100  Jérôme Pineau  Bouygues Telecom01h 16' 02"+  00:08:17 =44,980  km/h

101  Sylvain Calzati  AG2R-Decathlon01h 16' 07"+  00:08:22 =44,931  km/h

102  Victor Hugo Peña  Phonak Hearing Systems01h 16' 13"+  00:08:28 =44,872  km/h

103  Christophe Le Mevel  Credit Agricole01h 16' 13"+  00:08:28 =44,872  km/h

104  José Garcia Acosta  Illes Balears-Caisse d Epargne01h 16' 13"+  00:08:28 =44,872  km/h

105  Salvatore Commesso  Lampre-Fondital01h 16' 15"+  00:08:30 =44,852  km/h

106  Cédric Coutouly  Agritubel01h 16' 19"+  00:08:34 =44,813  km/h

107  Peter Wrolich  Gerolsteiner01h 16' 27"+  00:08:42 =44,735  km/h

108  Iván Parra  Cofidis Credit Par Telephone01h 16' 27"+  00:08:42 =44,735  km/h

109  Christophe Brandt  Davitamon-Lotto01h 16' 27"+  00:08:42 =44,735  km/h

110  Arnaud Coyot  Cofidis Credit Par Telephone01h 16' 28"+  00:08:43 =44,725  km/h

111  Riccardo Riccò  Saunier Duval-Prodir01h 16' 30"+  00:08:45 =44,706  km/h

112  Marco Velo  Milram01h 16' 35"+  00:08:50 =44,657  km/h

113  Patrice Halgand  Credit Agricole01h 16' 45"+  00:09:00 =44,560  km/h

114  Julian Dean  Credit Agricole01h 16' 46"+  00:09:01 =44,551  km/h

115  Juan Manuel Garate  Quick Step-Innergetic01h 16' 50"+  00:09:05 =44,512  km/h

116  Erik Zabel  Milram01h 16' 51"+  00:09:06 =44,502  km/h

117  Anthony Charteau  Credit Agricole01h 16' 57"+  00:09:12 =44,444  km/h

118  David Moncoutié  Cofidis Credit Par Telephone01h 17' 00"+  00:09:15 =44,416  km/h

119  Iñigo Landaluze  Euskaltel-Euskadi01h 17' 03"+  00:09:18 =44,387  km/h

120  Christophe Rinero  Saunier Duval-Prodir01h 17' 08"+  00:09:23 =44,339  km/h

121  Daniele Righi  Lampre-Fondital01h 17' 08"+  00:09:23 =44,339  km/h

122  Luca Paolini  Liquigas01h 17' 10"+  00:09:25 =44,320  km/h

123  Mario Aerts  Davitamon-Lotto01h 17' 10"+  00:09:25 =44,320  km/h

124  Iñaki Isasi  Euskaltel-Euskadi01h 17' 11"+  00:09:26 =44,310  km/h

125  Gilberto Simoni  Saunier Duval-Prodir01h 17' 21"+  00:09:36 =44,215  km/h

126  Simon Gerrans  AG2R-Decathlon01h 17' 22"+  00:09:37 =44,205  km/h

127  Gert Steegmans  Davitamon-Lotto01h 17' 34"+  00:09:49 =44,091  km/h

128  Stéphane Goubert  AG2R-Decathlon01h 17' 36"+  00:09:51 =44,072  km/h

129  Paolo Tiralongo  Lampre-Fondital01h 17' 49"+  00:10:04 =43,949  km/h

130  Patrick Calcagni  Liquigas01h 17' 49"+  00:10:04 =43,949  km/h

131  Wim Vansevenant  Davitamon-Lotto01h 18' 00"+  00:10:15 =43,846  km/h

132  Sébastien Hinault  Credit Agricole01h 18' 09"+  00:10:24 =43,762  km/h

133  Matteo Tosatto  Quick Step-Innergetic01h 18' 27"+  00:10:42 =43,595  km/h

134  Cristian Moreni  Cofidis Credit Par Telephone01h 18' 29"+  00:10:44 =43,576  km/h

135  Florent Brard  Illes Balears-Caisse d Epargne01h 18' 31"+  00:10:46 =43,558  km/h

136  Unai Etxebarria  Euskaltel-Euskadi01h 18' 31"+  00:10:46 =43,558  km/h

137  Rubén Lobato  Saunier Duval-Prodir01h 19' 03"+  00:11:18 =43,264  km/h

138  Jimmy Casper  Cofidis Credit Par Telephone01h 20' 11"+  00:12:26 =42,652  km/h

139  Manuel Calvente  Agritubel01h 20' 22"+  00:12:37 =42,555  km/h

140  Benoit Salmon  Agritubel01h 20' 35"+  00:12:50 =42,441  km/h


Withdrawls: 1
 RiderTeamReason
73   Robert Hunter Phonak Hearing SystemsExceeded time limit
Todays birthdays.

1869 • Adolphe Dorion
1884 • Achille Germain
1886 • Emile Eigeldinger
1896 • Andre Léger
1907 • Frans Dictus
1921 • Alberto Ghirardi
1934 • Joseph Planckaert
1945 • Leif Mortensen
1952 • Alex Van Linden
1960 • Roberto Bressan
1960 • Bernard Chesneau
1962 • Paul Watson
1963 • Juan Rozas
1965 • Jean-Pierre Heynderickx
1967 • José-Manuel Oliveira
1970 • Wilfried Nelissen
1980 • Nick Nuyens
1996 • Jai Hindley

 

Optimized for Chrome - Edge
and Opera browsers.